owner,sensor,date,latitude,longitude,vertical_datum,wind_speed,wind_to_direction,wind_speed_of_gust,qcFlag 
COMPS,ioos:station:USF.COMPS:SHP:1,2019-10-01T00:54:00,30.0600,-84.2910,10.0,0.42,58.2,0.97,'11111222,11111222,11111222' 
COMPS,ioos:station:USF.COMPS:SHP:1,2019-10-01T01:54:00,30.0600,-84.2910,10.0,0.71,83.41,1.96,'11111222,11111222,11111222' 
COMPS,ioos:station:USF.COMPS:SHP:1,2019-10-01T02:54:00,30.0600,-84.2910,10.0,2.65,100.27,5.09,'11111222,11111222,11111222' 
COMPS,ioos:station:USF.COMPS:SHP:1,2019-10-01T03:54:00,30.0600,-84.2910,10.0,3.87,110.79,6.07,'11111222,11111222,11111222' 
COMPS,ioos:station:USF.COMPS:SHP:1,2019-10-01T04:54:00,30.0600,-84.2910,10.0,3.53,112.21,5.39,'11111222,11111222,11111222' 
COMPS,ioos:station:USF.COMPS:SHP:1,2019-10-01T05:54:00,30.0600,-84.2910,10.0,2.5,93.53,4.11,'11111222,11111222,11111222' 
COMPS,ioos:station:USF.COMPS:SHP:1,2019-10-01T06:54:00,30.0600,-84.2910,10.0,1.22,48.55,2.84,'11111222,11111222,11111222' 
COMPS,ioos:station:USF.COMPS:SHP:1,2019-10-01T07:54:00,30.0600,-84.2910,10.0,1.14,61.64,2.74,'11111222,11111222,11111222' 
COMPS,ioos:station:USF.COMPS:SHP:1,2019-10-01T08:54:00,30.0600,-84.2910,10.0,1.17,50.73,2.64,'11111222,11111222,11111222' 
COMPS,ioos:station:USF.COMPS:SHP:1,2019-10-01T09:54:00,30.0600,-84.2910,10.0,2.15,44.84,3.72,'11111222,11111222,11111222' 
COMPS,ioos:station:USF.COMPS:SHP:1,2019-10-01T10:54:00,30.0600,-84.2910,10.0,1.48,38.75,3.33,'11111222,11111222,11111222' 
COMPS,ioos:station:USF.COMPS:SHP:1,2019-10-01T11:54:00,30.0600,-84.2910,10.0,1.81,46.74,3.62,'11111222,11111222,11111222' 
COMPS,ioos:station:USF.COMPS:SHP:1,2019-10-01T12:54:00,30.0600,-84.2910,10.0,1.84,44.68,3.13,'11111222,11111222,11111222' 
COMPS,ioos:station:USF.COMPS:SHP:1,2019-10-01T13:54:00,30.0600,-84.2910,10.0,1.94,50.44,4.31,'11111222,11111222,11111222' 
COMPS,ioos:station:USF.COMPS:SHP:1,2019-10-01T14:54:00,30.0600,-84.2910,10.0,1.35,84.22,3.03,'11111222,11111222,11111222' 
COMPS,ioos:station:USF.COMPS:SHP:1,2019-10-01T15:54:00,30.0600,-84.2910,10.0,2.42,104.71,4.21,'11111222,11111222,11111222' 
COMPS,ioos:station:USF.COMPS:SHP:1,2019-10-01T16:54:00,30.0600,-84.2910,10.0,2.45,113.41,3.62,'11111222,11111222,11111222' 
COMPS,ioos:station:USF.COMPS:SHP:1,2019-10-01T17:54:00,30.0600,-84.2910,10.0,2.38,112.19,4.11,'11111222,11111222,11111222' 
COMPS,ioos:station:USF.COMPS:SHP:1,2019-10-01T18:54:00,30.0600,-84.2910,10.0,2.08,105.03,4.31,'11111222,11111222,11111222' 
COMPS,ioos:station:USF.COMPS:SHP:1,2019-10-01T19:54:00,30.0600,-84.2910,10.0,2.04,106.55,4.01,'11111222,11111222,11111222' 
COMPS,ioos:station:USF.COMPS:SHP:1,2019-10-01T20:54:00,30.0600,-84.2910,10.0,2.28,61.01,5.68,'11111222,11111222,11111222' 
COMPS,ioos:station:USF.COMPS:SHP:1,2019-10-01T21:54:00,30.0600,-84.2910,10.0,2.54,48.78,5.39,'11111222,11111222,11111222' 
COMPS,ioos:station:USF.COMPS:SHP:1,2019-10-01T22:54:00,30.0600,-84.2910,10.0,2.72,71.05,6.17,'11111222,11111222,11111222' 
COMPS,ioos:station:USF.COMPS:SHP:1,2019-10-01T23:54:00,30.0600,-84.2910,10.0,1.57,56.19,3.33,'11111222,11111222,11111222' 
COMPS,ioos:station:USF.COMPS:SHP:1,2019-10-02T00:54:00,30.0600,-84.2910,10.0,2.57,73.16,4.8,'11111222,11111222,11111222' 
COMPS,ioos:station:USF.COMPS:SHP:1,2019-10-02T01:54:00,30.0600,-84.2910,10.0,4.35,106.57,8.33,'11111222,11111222,11111222' 
COMPS,ioos:station:USF.COMPS:SHP:1,2019-10-02T02:54:00,30.0600,-84.2910,10.0,4.5,111.59,6.95,'11111222,11111222,11111222' 
COMPS,ioos:station:USF.COMPS:SHP:1,2019-10-02T03:54:00,30.0600,-84.2910,10.0,3.45,97.2,5.39,'11111222,11111222,11111222' 
COMPS,ioos:station:USF.COMPS:SHP:1,2019-10-02T04:54:00,30.0600,-84.2910,10.0,3.06,84.97,7.15,'11111222,11111222,11111222' 
COMPS,ioos:station:USF.COMPS:SHP:1,2019-10-02T05:54:00,30.0600,-84.2910,10.0,1.72,67.05,4.5,'11111222,11111222,11111222' 
COMPS,ioos:station:USF.COMPS:SHP:1,2019-10-02T06:54:00,30.0600,-84.2910,10.0,1.51,74.04,3.13,'11111222,11111222,11111222' 
COMPS,ioos:station:USF.COMPS:SHP:1,2019-10-02T07:54:00,30.0600,-84.2910,10.0,1.6,58.95,3.33,'11111222,11111222,11111222' 
COMPS,ioos:station:USF.COMPS:SHP:1,2019-10-02T08:54:00,30.0600,-84.2910,10.0,1.49,50.93,3.33,'11111222,11111222,11111222' 
COMPS,ioos:station:USF.COMPS:SHP:1,2019-10-02T09:54:00,30.0600,-84.2910,10.0,1.19,50.81,2.74,'11111222,11111222,11111222' 
COMPS,ioos:station:USF.COMPS:SHP:1,2019-10-02T10:54:00,30.0600,-84.2910,10.0,1.24,43.41,2.25,'11111222,11111222,11111222' 
COMPS,ioos:station:USF.COMPS:SHP:1,2019-10-02T11:54:00,30.0600,-84.2910,10.0,1.86,15.55,2.54,'11111222,11111222,11111222' 
COMPS,ioos:station:USF.COMPS:SHP:1,2019-10-02T12:54:00,30.0600,-84.2910,10.0,1.91,42.03,3.52,'11111222,11111222,11111222' 
COMPS,ioos:station:USF.COMPS:SHP:1,2019-10-02T13:54:00,30.0600,-84.2910,10.0,1.41,60.58,3.52,'11111222,11111222,11111222' 
COMPS,ioos:station:USF.COMPS:SHP:1,2019-10-02T14:54:00,30.0600,-84.2910,10.0,1.45,81.44,2.84,'11111222,11111222,11111222' 
COMPS,ioos:station:USF.COMPS:SHP:1,2019-10-02T15:54:00,30.0600,-84.2910,10.0,2.34,108.71,3.23,'11111222,11111222,11111222' 
COMPS,ioos:station:USF.COMPS:SHP:1,2019-10-02T16:54:00,30.0600,-84.2910,10.0,2.98,139.35,3.82,'11111222,11111222,11111222' 
COMPS,ioos:station:USF.COMPS:SHP:1,2019-10-02T17:54:00,30.0600,-84.2910,10.0,3.55,144.9,4.11,'11111222,11111222,11111222' 
COMPS,ioos:station:USF.COMPS:SHP:1,2019-10-02T18:54:00,30.0600,-84.2910,10.0,2.83,174.2,3.92,'11111222,11111222,11111222' 
COMPS,ioos:station:USF.COMPS:SHP:1,2019-10-02T19:54:00,30.0600,-84.2910,10.0,3.3,177.79,4.5,'11111222,11111222,11111222' 
COMPS,ioos:station:USF.COMPS:SHP:1,2019-10-02T20:54:00,30.0600,-84.2910,10.0,3.66,182.2,4.8,'11111222,11111222,11111222' 
COMPS,ioos:station:USF.COMPS:SHP:1,2019-10-02T21:54:00,30.0600,-84.2910,10.0,2.26,173.27,3.13,'11111222,11111222,11111222' 
COMPS,ioos:station:USF.COMPS:SHP:1,2019-10-02T22:54:00,30.0600,-84.2910,10.0,0.52,182.56,0.88,'11111222,11111222,11111222' 
COMPS,ioos:station:USF.COMPS:SHP:1,2019-10-02T23:54:00,30.0600,-84.2910,10.0,0.09,83.9,0.09,'11111222,11111222,11111222' 
COMPS,ioos:station:USF.COMPS:SHP:1,2019-10-03T00:54:00,30.0600,-84.2910,10.0,0.42,358.08,0.58,'11111222,11111222,11111222' 
COMPS,ioos:station:USF.COMPS:SHP:1,2019-10-03T01:54:00,30.0600,-84.2910,10.0,0.7,18.01,0.97,'11111222,11111222,11111222' 
COMPS,ioos:station:USF.COMPS:SHP:1,2019-10-03T02:54:00,30.0600,-84.2910,10.0,0.81,43.87,1.27,'11111222,11111222,11111222' 
COMPS,ioos:station:USF.COMPS:SHP:1,2019-10-03T03:54:00,30.0600,-84.2910,10.0,5.0,128.3,6.37,'11111222,11111222,11111222' 
COMPS,ioos:station:USF.COMPS:SHP:1,2019-10-03T04:54:00,30.0600,-84.2910,10.0,6.46,129.23,9.01,'11111222,11111222,11111222' 
COMPS,ioos:station:USF.COMPS:SHP:1,2019-10-03T05:54:00,30.0600,-84.2910,10.0,6.03,136.11,6.95,'11111222,11111222,11111222' 
COMPS,ioos:station:USF.COMPS:SHP:1,2019-10-03T06:54:00,30.0600,-84.2910,10.0,4.96,132.58,6.17,'11111222,11111222,11111222' 
COMPS,ioos:station:USF.COMPS:SHP:1,2019-10-03T07:54:00,30.0600,-84.2910,10.0,4.41,136.72,5.29,'11111222,11111222,11111222' 
COMPS,ioos:station:USF.COMPS:SHP:1,2019-10-03T08:54:00,30.0600,-84.2910,10.0,3.14,135.48,4.01,'11111222,11111222,11111222' 
COMPS,ioos:station:USF.COMPS:SHP:1,2019-10-03T09:54:00,30.0600,-84.2910,10.0,1.77,27.58,2.25,'11111222,11111222,11111222' 
COMPS,ioos:station:USF.COMPS:SHP:1,2019-10-03T10:54:00,30.0600,-84.2910,10.0,1.64,40.86,2.35,'11111222,11111222,11111222' 
COMPS,ioos:station:USF.COMPS:SHP:1,2019-10-03T11:54:00,30.0600,-84.2910,10.0,1.14,39.17,2.35,'11111222,11111222,11111222' 
COMPS,ioos:station:USF.COMPS:SHP:1,2019-10-03T12:54:00,30.0600,-84.2910,10.0,1.5,46.4,2.94,'11111222,11111222,11111222' 
COMPS,ioos:station:USF.COMPS:SHP:1,2019-10-03T13:54:00,30.0600,-84.2910,10.0,0.76,58.54,1.86,'11111222,11111222,11111222' 
COMPS,ioos:station:USF.COMPS:SHP:1,2019-10-03T14:54:00,30.0600,-84.2910,10.0,1.86,102.06,3.13,'11111222,11111222,11111222' 
COMPS,ioos:station:USF.COMPS:SHP:1,2019-10-03T15:54:00,30.0600,-84.2910,10.0,3.01,124.47,3.62,'11111222,11111222,11111222' 
COMPS,ioos:station:USF.COMPS:SHP:1,2019-10-03T16:54:00,30.0600,-84.2910,10.0,3.94,152.92,4.8,'11111222,11111222,11111222' 
COMPS,ioos:station:USF.COMPS:SHP:1,2019-10-03T17:54:00,30.0600,-84.2910,10.0,4.37,164.69,5.29,'11111222,11111222,11111222' 
COMPS,ioos:station:USF.COMPS:SHP:1,2019-10-03T18:54:00,30.0600,-84.2910,10.0,4.32,168.82,5.29,'11111222,11111222,11111222' 
COMPS,ioos:station:USF.COMPS:SHP:1,2019-10-03T19:54:00,30.0600,-84.2910,10.0,3.71,185.57,5.09,'11111222,11111222,11111222' 
COMPS,ioos:station:USF.COMPS:SHP:1,2019-10-03T20:54:00,30.0600,-84.2910,10.0,3.22,186.15,4.7,'11111222,11111222,11111222' 
COMPS,ioos:station:USF.COMPS:SHP:1,2019-10-03T21:54:00,30.0600,-84.2910,10.0,3.4,193.42,5.09,'11111222,11111222,11111222' 
COMPS,ioos:station:USF.COMPS:SHP:1,2019-10-03T22:54:00,30.0600,-84.2910,10.0,2.66,199.67,3.23,'11111222,11111222,11111222' 
COMPS,ioos:station:USF.COMPS:SHP:1,2019-10-03T23:54:00,30.0600,-84.2910,10.0,3.77,224.08,4.6,'11111222,11111222,11111222' 
COMPS,ioos:station:USF.COMPS:SHP:1,2019-10-04T00:54:00,30.0600,-84.2910,10.0,3.27,229.5,4.11,'11111222,11111222,11111222' 
COMPS,ioos:station:USF.COMPS:SHP:1,2019-10-04T01:54:00,30.0600,-84.2910,10.0,1.9,272.66,2.64,'11111222,11111222,11111222' 
COMPS,ioos:station:USF.COMPS:SHP:1,2019-10-04T02:54:00,30.0600,-84.2910,10.0,1.25,339.62,1.86,'11111222,11111222,11111222' 
COMPS,ioos:station:USF.COMPS:SHP:1,2019-10-04T03:54:00,30.0600,-84.2910,10.0,1.54,356.71,2.45,'11111222,11111222,11111222' 
COMPS,ioos:station:USF.COMPS:SHP:1,2019-10-04T04:54:00,30.0600,-84.2910,10.0,2.26,8.51,3.03,'11111222,11111222,11111222' 
COMPS,ioos:station:USF.COMPS:SHP:1,2019-10-04T05:54:00,30.0600,-84.2910,10.0,1.65,8.29,2.15,'11111222,11111222,11111222' 
COMPS,ioos:station:USF.COMPS:SHP:1,2019-10-04T06:54:00,30.0600,-84.2910,10.0,1.51,33.37,2.15,'11111222,11111222,11111222' 
COMPS,ioos:station:USF.COMPS:SHP:1,2019-10-04T07:54:00,30.0600,-84.2910,10.0,1.4,2.96,1.76,'11111222,11111222,11111222' 
COMPS,ioos:station:USF.COMPS:SHP:1,2019-10-04T08:54:00,30.0600,-84.2910,10.0,2.42,11.72,3.03,'11111222,11111222,11111222' 
COMPS,ioos:station:USF.COMPS:SHP:1,2019-10-04T09:54:00,30.0600,-84.2910,10.0,2.2,18.41,3.13,'11111222,11111222,11111222' 
COMPS,ioos:station:USF.COMPS:SHP:1,2019-10-04T10:54:00,30.0600,-84.2910,10.0,1.72,32.74,2.35,'11111222,11111222,11111222' 
COMPS,ioos:station:USF.COMPS:SHP:1,2019-10-04T11:54:00,30.0600,-84.2910,10.0,1.35,38.78,2.54,'11111222,11111222,11111222' 
COMPS,ioos:station:USF.COMPS:SHP:1,2019-10-04T12:54:00,30.0600,-84.2910,10.0,1.21,41.8,2.64,'11111222,11111222,11111222' 
COMPS,ioos:station:USF.COMPS:SHP:1,2019-10-04T13:54:00,30.0600,-84.2910,10.0,1.04,70.71,3.23,'11111222,11111222,11111222' 
COMPS,ioos:station:USF.COMPS:SHP:1,2019-10-04T14:54:00,30.0600,-84.2910,10.0,2.24,94.48,3.23,'11111222,11111222,11111222' 
COMPS,ioos:station:USF.COMPS:SHP:1,2019-10-04T15:54:00,30.0600,-84.2910,10.0,3.09,133.87,3.62,'11111222,11111222,11111222' 
COMPS,ioos:station:USF.COMPS:SHP:1,2019-10-04T16:54:00,30.0600,-84.2910,10.0,4.2,142.1,4.9,'11111222,11111222,11111222' 
COMPS,ioos:station:USF.COMPS:SHP:1,2019-10-04T17:54:00,30.0600,-84.2910,10.0,3.78,163.34,4.7,'11111222,11111222,11111222' 
COMPS,ioos:station:USF.COMPS:SHP:1,2019-10-04T18:54:00,30.0600,-84.2910,10.0,4.02,176.53,5.29,'11111222,11111222,11111222' 
COMPS,ioos:station:USF.COMPS:SHP:1,2019-10-04T19:54:00,30.0600,-84.2910,10.0,4.43,174.99,5.58,'11111222,11111222,11111222' 
COMPS,ioos:station:USF.COMPS:SHP:1,2019-10-04T20:54:00,30.0600,-84.2910,10.0,5.41,175.46,6.66,'11111222,11111222,11111222' 
COMPS,ioos:station:USF.COMPS:SHP:1,2019-10-04T21:54:00,30.0600,-84.2910,10.0,4.07,185.48,5.19,'11111222,11111222,11111222' 
COMPS,ioos:station:USF.COMPS:SHP:1,2019-10-04T22:54:00,30.0600,-84.2910,10.0,4.41,195.54,5.48,'11111222,11111222,11111222' 
COMPS,ioos:station:USF.COMPS:SHP:1,2019-10-04T23:54:00,30.0600,-84.2910,10.0,4.09,222.51,4.99,'11111222,11111222,11111222' 
COMPS,ioos:station:USF.COMPS:SHP:1,2019-10-05T00:54:00,30.0600,-84.2910,10.0,3.64,219.79,4.6,'11111222,11111222,11111222' 
COMPS,ioos:station:USF.COMPS:SHP:1,2019-10-05T01:54:00,30.0600,-84.2910,10.0,2.52,230.38,3.43,'11111222,11111222,11111222' 
COMPS,ioos:station:USF.COMPS:SHP:1,2019-10-05T02:54:00,30.0600,-84.2910,10.0,1.57,317.67,2.15,'11111222,11111222,11111222' 
COMPS,ioos:station:USF.COMPS:SHP:1,2019-10-05T03:54:00,30.0600,-84.2910,10.0,2.31,329.04,3.43,'11111222,11111222,11111222' 
COMPS,ioos:station:USF.COMPS:SHP:1,2019-10-05T04:54:00,30.0600,-84.2910,10.0,2.04,328.24,3.13,'11111222,11111222,11111222' 
COMPS,ioos:station:USF.COMPS:SHP:1,2019-10-05T05:54:00,30.0600,-84.2910,10.0,2.75,340.78,3.43,'11111222,11111222,11111222' 
COMPS,ioos:station:USF.COMPS:SHP:1,2019-10-05T06:54:00,30.0600,-84.2910,10.0,2.38,351.11,3.43,'11111222,11111222,11111222' 
COMPS,ioos:station:USF.COMPS:SHP:1,2019-10-05T07:54:00,30.0600,-84.2910,10.0,2.24,11.84,3.52,'11111222,11111222,11111222' 
COMPS,ioos:station:USF.COMPS:SHP:1,2019-10-05T08:54:00,30.0600,-84.2910,10.0,1.8,43.95,3.33,'11111222,11111222,11111222' 
COMPS,ioos:station:USF.COMPS:SHP:1,2019-10-05T09:54:00,30.0600,-84.2910,10.0,1.12,51.36,2.15,'11111222,11111222,11111222' 
COMPS,ioos:station:USF.COMPS:SHP:1,2019-10-05T10:54:00,30.0600,-84.2910,10.0,1.09,78.6,2.54,'11111222,11111222,11111222' 
COMPS,ioos:station:USF.COMPS:SHP:1,2019-10-05T11:54:00,30.0600,-84.2910,10.0,1.3,47.5,2.94,'11111222,11111222,11111222' 
COMPS,ioos:station:USF.COMPS:SHP:1,2019-10-05T12:54:00,30.0600,-84.2910,10.0,1.85,65.54,3.43,'11111222,11111222,11111222' 
COMPS,ioos:station:USF.COMPS:SHP:1,2019-10-05T13:54:00,30.0600,-84.2910,10.0,2.92,97.78,4.8,'11111222,11111222,11111222' 
COMPS,ioos:station:USF.COMPS:SHP:1,2019-10-05T14:54:00,30.0600,-84.2910,10.0,3.28,117.08,4.5,'11111222,11111222,11111222' 
COMPS,ioos:station:USF.COMPS:SHP:1,2019-10-05T15:54:00,30.0600,-84.2910,10.0,4.57,122.35,6.76,'11111222,11111222,11111222' 
COMPS,ioos:station:USF.COMPS:SHP:1,2019-10-05T16:54:00,30.0600,-84.2910,10.0,5.57,130.96,7.64,'11111222,11111222,11111222' 
COMPS,ioos:station:USF.COMPS:SHP:1,2019-10-05T17:54:00,30.0600,-84.2910,10.0,5.34,137.08,6.46,'11111222,11111222,11111222' 
COMPS,ioos:station:USF.COMPS:SHP:1,2019-10-05T18:54:00,30.0600,-84.2910,10.0,4.82,142.68,6.07,'11111222,11111222,11111222' 
COMPS,ioos:station:USF.COMPS:SHP:1,2019-10-05T19:54:00,30.0600,-84.2910,10.0,4.55,154.55,5.39,'11111222,11111222,11111222' 
COMPS,ioos:station:USF.COMPS:SHP:1,2019-10-05T20:54:00,30.0600,-84.2910,10.0,3.06,160.92,4.21,'11111222,11111222,11111222' 
COMPS,ioos:station:USF.COMPS:SHP:1,2019-10-05T21:54:00,30.0600,-84.2910,10.0,1.33,182.43,2.15,'11111222,11111222,11111222' 
COMPS,ioos:station:USF.COMPS:SHP:1,2019-10-05T22:54:00,30.0600,-84.2910,10.0,0.64,216.01,1.27,'11111222,11111222,11111222' 
COMPS,ioos:station:USF.COMPS:SHP:1,2019-10-05T23:54:00,30.0600,-84.2910,10.0,0.13,329.38,0.39,'11111222,11111222,11111222' 
COMPS,ioos:station:USF.COMPS:SHP:1,2019-10-06T00:54:00,30.0600,-84.2910,10.0,0.81,32.72,1.27,'11111222,11111222,11111222' 
COMPS,ioos:station:USF.COMPS:SHP:1,2019-10-06T01:54:00,30.0600,-84.2910,10.0,4.57,101.75,7.44,'11111222,11111222,11111222' 
COMPS,ioos:station:USF.COMPS:SHP:1,2019-10-06T02:54:00,30.0600,-84.2910,10.0,5.16,95.05,8.62,'11111222,11111222,11111222' 
COMPS,ioos:station:USF.COMPS:SHP:1,2019-10-06T03:54:00,30.0600,-84.2910,10.0,4.17,107.84,7.25,'11111222,11111222,11111222' 
COMPS,ioos:station:USF.COMPS:SHP:1,2019-10-06T04:54:00,30.0600,-84.2910,10.0,1.81,75.92,4.11,'11111222,11111222,11111222' 
COMPS,ioos:station:USF.COMPS:SHP:1,2019-10-06T05:54:00,30.0600,-84.2910,10.0,2.43,60.23,5.68,'11111222,11111222,11111222' 
COMPS,ioos:station:USF.COMPS:SHP:1,2019-10-06T06:54:00,30.0600,-84.2910,10.0,2.55,61.1,6.46,'11111222,11111222,11111222' 
COMPS,ioos:station:USF.COMPS:SHP:1,2019-10-06T07:54:00,30.0600,-84.2910,10.0,1.92,61.92,4.7,'11111222,11111222,11111222' 
COMPS,ioos:station:USF.COMPS:SHP:1,2019-10-06T08:54:00,30.0600,-84.2910,10.0,2.54,49.72,4.7,'11111222,11111222,11111222' 
COMPS,ioos:station:USF.COMPS:SHP:1,2019-10-06T09:54:00,30.0600,-84.2910,10.0,2.33,62.28,4.31,'11111222,11111222,11111222' 
COMPS,ioos:station:USF.COMPS:SHP:1,2019-10-06T10:54:00,30.0600,-84.2910,10.0,1.67,57.66,3.72,'11111222,11111222,11111222' 
COMPS,ioos:station:USF.COMPS:SHP:1,2019-10-06T11:54:00,30.0600,-84.2910,10.0,2.27,53.45,4.11,'11111222,11111222,11111222' 
COMPS,ioos:station:USF.COMPS:SHP:1,2019-10-06T12:54:00,30.0600,-84.2910,10.0,1.72,56.22,3.82,'11111222,11111222,11111222' 
COMPS,ioos:station:USF.COMPS:SHP:1,2019-10-06T13:54:00,30.0600,-84.2910,10.0,2.9,66.63,5.19,'11111222,11111222,11111222' 
COMPS,ioos:station:USF.COMPS:SHP:1,2019-10-06T14:54:00,30.0600,-84.2910,10.0,2.3,69.5,5.29,'11111222,11111222,11111222' 
COMPS,ioos:station:USF.COMPS:SHP:1,2019-10-06T15:54:00,30.0600,-84.2910,10.0,2.24,67.47,5.09,'11111222,11111222,11111222' 
COMPS,ioos:station:USF.COMPS:SHP:1,2019-10-06T16:54:00,30.0600,-84.2910,10.0,2.96,81.03,5.87,'11111222,11111222,11111222' 
COMPS,ioos:station:USF.COMPS:SHP:1,2019-10-06T17:54:00,30.0600,-84.2910,10.0,3.07,96.11,5.48,'11111222,11111222,11111222' 
COMPS,ioos:station:USF.COMPS:SHP:1,2019-10-06T18:54:00,30.0600,-84.2910,10.0,3.45,93.89,6.27,'11111222,11111222,11111222' 
COMPS,ioos:station:USF.COMPS:SHP:1,2019-10-06T19:54:00,30.0600,-84.2910,10.0,2.88,107.95,4.5,'11111222,11111222,11111222' 
COMPS,ioos:station:USF.COMPS:SHP:1,2019-10-06T20:54:00,30.0600,-84.2910,10.0,1.68,101.65,3.03,'11111222,11111222,11111222' 
COMPS,ioos:station:USF.COMPS:SHP:1,2019-10-06T21:54:00,30.0600,-84.2910,10.0,1.9,117.25,3.23,'11111222,11111222,11111222' 
COMPS,ioos:station:USF.COMPS:SHP:1,2019-10-06T22:54:00,30.0600,-84.2910,10.0,2.06,81.61,4.7,'11111222,11111222,11111222' 
COMPS,ioos:station:USF.COMPS:SHP:1,2019-10-06T23:54:00,30.0600,-84.2910,10.0,3.04,94.01,6.46,'11111222,11111222,11111222' 
COMPS,ioos:station:USF.COMPS:SHP:1,2019-10-07T00:54:00,30.0600,-84.2910,10.0,2.55,50.82,5.58,'11111222,11111222,11111222' 
COMPS,ioos:station:USF.COMPS:SHP:1,2019-10-07T01:54:00,30.0600,-84.2910,10.0,2.84,58.67,6.56,'11111222,11111222,11111222' 
COMPS,ioos:station:USF.COMPS:SHP:1,2019-10-07T02:54:00,30.0600,-84.2910,10.0,2.14,56.96,4.31,'11111222,11111222,11111222' 
COMPS,ioos:station:USF.COMPS:SHP:1,2019-10-07T03:54:00,30.0600,-84.2910,10.0,3.11,62.94,6.56,'11111222,11111222,11111222' 
COMPS,ioos:station:USF.COMPS:SHP:1,2019-10-07T04:54:00,30.0600,-84.2910,10.0,1.82,69.96,4.99,'11111222,11111222,11111222' 
COMPS,ioos:station:USF.COMPS:SHP:1,2019-10-07T05:54:00,30.0600,-84.2910,10.0,2.27,50.55,4.31,'11111222,11111222,11111222' 
COMPS,ioos:station:USF.COMPS:SHP:1,2019-10-07T06:54:00,30.0600,-84.2910,10.0,2.06,55.61,3.92,'11111222,11111222,11111222' 
COMPS,ioos:station:USF.COMPS:SHP:1,2019-10-07T07:54:00,30.0600,-84.2910,10.0,2.23,43.6,3.82,'11111222,11111222,11111222' 
COMPS,ioos:station:USF.COMPS:SHP:1,2019-10-07T08:54:00,30.0600,-84.2910,10.0,2.08,26.79,3.13,'11111222,11111222,11111222' 
COMPS,ioos:station:USF.COMPS:SHP:1,2019-10-07T09:54:00,30.0600,-84.2910,10.0,2.68,44.43,5.68,'11111222,11111222,11111222' 
COMPS,ioos:station:USF.COMPS:SHP:1,2019-10-07T10:54:00,30.0600,-84.2910,10.0,3.08,39.36,5.39,'11111222,11111222,11111222' 
COMPS,ioos:station:USF.COMPS:SHP:1,2019-10-07T11:54:00,30.0600,-84.2910,10.0,3.38,26.28,5.87,'11111222,11111222,11111222' 
COMPS,ioos:station:USF.COMPS:SHP:1,2019-10-07T13:54:00,30.0600,-84.2910,10.0,2.98,39.66,5.39,'11111222,11111222,11111222' 
COMPS,ioos:station:USF.COMPS:SHP:1,2019-10-07T14:54:00,30.0600,-84.2910,10.0,2.85,35.61,4.8,'11111222,11111222,11111222' 
COMPS,ioos:station:USF.COMPS:SHP:1,2019-10-07T15:54:00,30.0600,-84.2910,10.0,2.99,34.82,5.48,'11111222,11111222,11111222' 
COMPS,ioos:station:USF.COMPS:SHP:1,2019-10-07T16:54:00,30.0600,-84.2910,10.0,3.22,26.41,4.99,'11111222,11111222,11111222' 
COMPS,ioos:station:USF.COMPS:SHP:1,2019-10-07T17:54:00,30.0600,-84.2910,10.0,3.13,24.64,5.48,'11111222,11111222,11111222' 
COMPS,ioos:station:USF.COMPS:SHP:1,2019-10-07T18:54:00,30.0600,-84.2910,10.0,1.86,22.55,3.23,'11111222,11111222,11111222' 
COMPS,ioos:station:USF.COMPS:SHP:1,2019-10-07T19:54:00,30.0600,-84.2910,10.0,2.29,25.94,3.72,'11111222,11111222,11111222' 
COMPS,ioos:station:USF.COMPS:SHP:1,2019-10-07T20:54:00,30.0600,-84.2910,10.0,1.66,49.61,3.72,'11111222,11111222,11111222' 
COMPS,ioos:station:USF.COMPS:SHP:1,2019-10-07T21:54:00,30.0600,-84.2910,10.0,1.49,68.9,3.03,'11111222,11111222,11111222' 
COMPS,ioos:station:USF.COMPS:SHP:1,2019-10-07T22:54:00,30.0600,-84.2910,10.0,2.13,60.46,5.39,'11111222,11111222,11111222' 
COMPS,ioos:station:USF.COMPS:SHP:1,2019-10-07T23:54:00,30.0600,-84.2910,10.0,1.61,63.35,2.94,'11111222,11111222,11111222' 
COMPS,ioos:station:USF.COMPS:SHP:1,2019-10-08T00:54:00,30.0600,-84.2910,10.0,2.4,76.86,5.68,'11111222,11111222,11111222' 
COMPS,ioos:station:USF.COMPS:SHP:1,2019-10-08T01:54:00,30.0600,-84.2910,10.0,1.44,46.33,3.72,'11111222,11111222,11111222' 
COMPS,ioos:station:USF.COMPS:SHP:1,2019-10-08T02:54:00,30.0600,-84.2910,10.0,1.1,43.27,4.7,'11111222,11111222,11111222' 
COMPS,ioos:station:USF.COMPS:SHP:1,2019-10-08T03:54:00,30.0600,-84.2910,10.0,1.69,59.18,4.11,'11111222,11111222,11111222' 
COMPS,ioos:station:USF.COMPS:SHP:1,2019-10-08T04:54:00,30.0600,-84.2910,10.0,1.61,40.12,3.43,'11111222,11111222,11111222' 
COMPS,ioos:station:USF.COMPS:SHP:1,2019-10-08T05:54:00,30.0600,-84.2910,10.0,1.23,64.09,2.25,'11111222,11111222,11111222' 
COMPS,ioos:station:USF.COMPS:SHP:1,2019-10-08T06:54:00,30.0600,-84.2910,10.0,0.93,46.71,2.74,'11111222,11111222,11111222' 
COMPS,ioos:station:USF.COMPS:SHP:1,2019-10-08T07:54:00,30.0600,-84.2910,10.0,2.11,350.4,3.13,'11111222,11111222,11111222' 
COMPS,ioos:station:USF.COMPS:SHP:1,2019-10-08T08:54:00,30.0600,-84.2910,10.0,3.38,11.94,5.09,'11111222,11111222,11111222' 
COMPS,ioos:station:USF.COMPS:SHP:1,2019-10-08T09:54:00,30.0600,-84.2910,10.0,3.93,14.19,4.99,'11111222,11111222,11111222' 
COMPS,ioos:station:USF.COMPS:SHP:1,2019-10-08T10:54:00,30.0600,-84.2910,10.0,3.05,25.03,5.09,'11111222,11111222,11111222' 
COMPS,ioos:station:USF.COMPS:SHP:1,2019-10-08T11:54:00,30.0600,-84.2910,10.0,2.96,34.66,4.9,'11111222,11111222,11111222' 
COMPS,ioos:station:USF.COMPS:SHP:1,2019-10-08T12:54:00,30.0600,-84.2910,10.0,2.45,36.1,6.07,'11111222,11111222,11111222' 
COMPS,ioos:station:USF.COMPS:SHP:1,2019-10-08T13:54:00,30.0600,-84.2910,10.0,2.06,42.87,4.11,'11111222,11111222,11111222' 
COMPS,ioos:station:USF.COMPS:SHP:1,2019-10-08T14:54:00,30.0600,-84.2910,10.0,2.59,40.24,4.6,'11111222,11111222,11111222' 
COMPS,ioos:station:USF.COMPS:SHP:1,2019-10-08T15:54:00,30.0600,-84.2910,10.0,2.99,36.63,4.31,'11111222,11111222,11111222' 
COMPS,ioos:station:USF.COMPS:SHP:1,2019-10-08T16:54:00,30.0600,-84.2910,10.0,1.75,75.31,3.43,'11111222,11111222,11111222' 
COMPS,ioos:station:USF.COMPS:SHP:1,2019-10-08T18:54:00,30.0600,-84.2910,10.0,1.83,85.74,3.43,'11111222,11111222,11111222' 
COMPS,ioos:station:USF.COMPS:SHP:1,2019-10-08T19:54:00,30.0600,-84.2910,10.0,2.45,41.06,5.09,'11111222,11111222,11111222' 
COMPS,ioos:station:USF.COMPS:SHP:1,2019-10-08T20:54:00,30.0600,-84.2910,10.0,3.25,126.28,4.5,'11111222,11111222,11111222' 
COMPS,ioos:station:USF.COMPS:SHP:1,2019-10-08T21:54:00,30.0600,-84.2910,10.0,2.88,131.01,3.92,'11111222,11111222,11111222' 
COMPS,ioos:station:USF.COMPS:SHP:1,2019-10-08T22:54:00,30.0600,-84.2910,10.0,0.81,64.55,2.25,'11111222,11111222,11111222' 
COMPS,ioos:station:USF.COMPS:SHP:1,2019-10-08T23:54:00,30.0600,-84.2910,10.0,0.72,62.45,1.56,'11111222,11111222,11111222' 
COMPS,ioos:station:USF.COMPS:SHP:1,2019-10-09T00:54:00,30.0600,-84.2910,10.0,0.34,22.3,0.68,'11111222,11111222,11111222' 
COMPS,ioos:station:USF.COMPS:SHP:1,2019-10-09T01:54:00,30.0600,-84.2910,10.0,0.74,51.3,1.37,'11111222,11111222,11111222' 
COMPS,ioos:station:USF.COMPS:SHP:1,2019-10-09T02:54:00,30.0600,-84.2910,10.0,1.17,41.61,1.96,'11111222,11111222,11111222' 
COMPS,ioos:station:USF.COMPS:SHP:1,2019-10-09T03:54:00,30.0600,-84.2910,10.0,4.59,122.38,6.27,'11111222,11111222,11111222' 